Location: Bęczków
(50.8761°N, 20.8028°E)
Time: 19:00:48
(UTC+01:00)

ISS - Visible Passes

Search period start: 24 March 2019 00:00
Search period end: 03 April 2019 01:00
Orbit: 408 x 411 km, 51.6° (Epoch: 24 March)

Date Brightness Start Highest point End Pass type
(mag) Time Alt. Az. Time Alt. Az. Time Alt. Az.
24 Mar -3.7 19:33:19 10° SW 19:36:33 52° SSE 19:37:09 44° ESE visible
24 Mar -0.6 21:09:47 10° W 21:09:56 11° W 21:09:56 11° W visible
25 Mar -3.1 18:42:54 10° SW 18:45:59 37° SSE 18:48:51 11° E visible
25 Mar -3.0 20:19:07 10° W 20:21:38 49° W 20:21:38 49° W visible
26 Mar -3.9 19:28:26 10° WSW 19:31:45 82° SSE 19:33:13 31° E visible
26 Mar -1.0 21:05:06 10° W 21:05:59 17° W 21:05:59 17° W visible
27 Mar -3.7 18:37:50 10° WSW 18:41:06 63° SSE 18:44:23 10° ENE visible
27 Mar -3.6 20:14:23 10° W 20:17:27 69° NW 20:17:27 69° NW visible
28 Mar -3.8 19:23:40 10° W 19:26:59 79° N 19:28:51 24° E visible
28 Mar -1.4 21:00:20 10° WNW 21:01:37 22° W 21:01:37 22° W visible
29 Mar -3.8 18:32:56 10° WSW 18:36:16 89° ENE 18:39:34 10° E visible
29 Mar -3.9 20:09:37 10° W 20:12:56 82° N 20:12:58 82° NNE visible
30 Mar -3.7 19:18:52 10° W 19:22:11 76° N 19:24:16 21° E visible
30 Mar -1.7 20:55:30 10° W 20:57:02 24° W 20:57:02 24° W visible
31 Mar -3.9 21:04:45 10° WNW 21:08:04 75° SSW 21:08:18 70° SSE visible
01 Apr -3.8 20:14:01 10° W 20:17:21 88° NNE 20:19:35 19° E visible
01 Apr -1.7 21:50:43 10° W 21:52:20 22° WSW 21:52:20 22° WSW visible
02 Apr -3.3 20:59:53 10° W 21:03:05 46° SSW 21:03:36 42° S visible
